Overview Statistics Trail Chart Weather Telemetry Raw packets
 

This is the latest recevied weather packets stored in our database for station/object G4WLC-1. If no packets are shown the sender has not sent any weather packets the latest 10 day(s).

<< 56 57 58 59 60 61 62 >>
Time Temp. Humidity Pressure Rain* Wind** Luminosity Snow
1788280930 20° C 66% 1020.2 hPa 0 mm - - -
1788280630 20° C 68% 1020.1 hPa 0 mm - - -
1788280330 20° C 67% 1020.2 hPa 0 mm - - -
1788280030 20° C 67% 1020.2 hPa 0 mm - - -
1788279750 20° C 67% 1020.2 hPa 0 mm - - -
1788279429 20° C 68% 1020.1 hPa 0 mm - - -
1788279130 20° C 68% 1020.3 hPa 0 mm - - -
1788278830 20° C 68% 1020.2 hPa 0 mm - - -
1788278530 19.44° C 69% 1020.3 hPa 0 mm - - -
1788278230 19.44° C 66% 1020.5 hPa 0 mm - - -
1788277930 20° C 69% 1020.4 hPa 0 mm - - -
1788277630 20° C 69% 1020.2 hPa 0 mm - - -
1788277330 20° C 69% 1020.3 hPa 0 mm - - -
1788277030 20° C 68% 1020.1 hPa 0 mm - - -
1788276730 20.56° C 68% 1020.3 hPa 0 mm - - -
1788276430 20° C 68% 1020.2 hPa 0 mm - - -
1788276130 20° C 70% 1020.3 hPa 0 mm - - -
1788275830 20° C 69% 1020.2 hPa 0 mm - - -
1788275530 20° C 69% 1020.3 hPa 0 mm - - -
1788275230 20° C 69% 1020.4 hPa 0 mm - - -
1788274930 20° C 69% 1020.3 hPa 0 mm - - -
1788274630 20° C 70% 1020.2 hPa 0 mm - - -
1788274330 19.44° C 71% 1020.2 hPa 0 mm - - -
1788274030 18.89° C 71% 1020.3 hPa 0 mm - - -
1788273730 18.89° C 71% 1020.3 hPa 0 mm - - -

* Rain latest hour (hover to see other rain measurements)
** Current wind speed in m/s (hover to see current wind gust speed)